Погода в Курске

Хотите узнать прогноз погоды в Курске? Тогда Вам сюда: Погода в Курске

Поиск расширенной информации на нашем сайте:

Полезная информация:

Новости сайта



02.01.2020
Опубликован Долгосрочный прогноз погоды по городам России и ближнего зарубежья на январь 2020 года.
Карты: Прогноз на январь и февраль 2020 года, Сравнение прогнозируемой аномалии приземной температуры воздуха на январь 2020 года по разным моделям.




Погода в Курске - сегодня

Время (UTC), дата Ветер
(°,м/с) 
Видим.   Явления Облачность Т
(°С)
Тd
(°С)
f(%) Тe
(°С)
Pmin
(гПа)
dP
(гПа)
Po
(мм)
O2
(г/м3)
Тmin Tmax R s Состояние
почвы
09 04.06.20 200 (Ю) 10 км  слаб. ливневой дождь  9/9 600 м кучево-дожд. 
[Cb cap]
+13.6 +8.8 73 +14  1006.7  1.1  733  280           
12 04.06.20 210 (ЮЗ) 10 км  {ливн. осадки}  8/8 600 м 
[Cu Sc]
+17.2 +6.6 50 +17  1006.8  0.4  734  277           
15 04.06.20 210 (ЮЗ) 3{10}  10 км    8/8 600 м 
[Cu Sc]
+17.6 +6.9 49 +18  1007.2  0.4  734  277         
18 04.06.20 170 (Ю) 1{15}  10 км  в посл. час ливневой дождь{гроза}  9/8 600 м кучево-дожд., верхняя 
[Cb cap|Ci fib]
+10.4 +8.2 86 +12  1009.2  1.3  735  284    +18.9     
21 04.06.20 150 (ЮВ) 10 км    3/0 верхняя 
[Ci fib]
+10.4 +7.8 84 +10  1009.7  0.5  735  284           
00 05.06.20 160 (Ю) 10 км    8/0 верхняя 
[Ci fib]
+9.9 +7.7 86 +10  1010.3  0.6  736  285           
03 05.06.20 150 (ЮВ) 10 км    8/3 600 м средняя, верхняя 
[Sc|Ac trans|Ci fib]
+11.5 +7.7 77 +11  1009.8  -0.3  735  283  +9.9       
06 05.06.20 190 (Ю) 10 км  слаб. ливневой дождь  10/10 600 м кучево-дожд. 
[Cb cap]
+12.4 +9.6 83 +13  1011.1  1.3  736  282  +9.9    0.3    влажная 
09 05.06.20 120 (ЮВ) 3{10}  10 км  слаб. ливневой дождь  10/10 300 м кучево-дожд. 
[Cb cap]
+11.3 +10.1 92 +13  1010.3  -0.9  736  283           
12 05.06.20 200 (Ю) 4000 м  в посл. час ливневой дождь  10/10 300 м 
[Sc diur, vesp]
+14.5 +12.8 90 +20  1010.9  0.9  736  279           
15 05.06.20 200 (Ю) 4{10}  10 км    9/6 600 м средняя, верхняя 
[Sc|Ac trans|Ci fib]
+16.9 +12.5 75 +22  1010.8  0.2  736  277      15     
18 05.06.20 160 (Ю) 10 км    9/8 600 м верхняя 
[Sc|Ci fib]
+15.6 +13.5 87 +23  1011.4  0.5  737  278    +17.2  14     
21 05.06.20 150 (ЮВ) 10 км    8/4 600 м средняя, верхняя 
[Sc|Ac trans|Ci fib]
+14.6 +12.8 89 +22  1011.8  0.2  737  279           
00 06.06.20 170 (Ю) 10 км  в посл. час ливневой дождь  9/3 600 м средняя, верхняя 
[Sc diur, vesp|Ac trans|Ci fib]
+14.5 +12.4 87 +20  1012.2  0.4  737  280           
03 06.06.20 180 (Ю) 10 км    9/9 600 м 
[Sc]
+14.4 +12 85 +19  1012.5  0.2  737  280  +13.9    0.3     
06 06.06.20 200 (Ю) 10 км    9/8 600 м верхняя 
[Sc|Ci fib]
+17.7 +12.8 73 +24  1013.1  0.9  738  277  +13.9    0.3    влажная 
09 06.06.20 180 (Ю) 10 км    8/0 верхняя 
[Ci fib]
+22.5 +13.8 58 +30  1012.6  738  272           
12 06.06.20 220 (ЮЗ) 10 км    9/0 верхняя 
[Ci fib]
+24.8 +13.2 48 +31  1013.1  0.7  739  270           
15 06.06.20 210 (ЮЗ) 10 км    9/0 средняя, верхняя 
[Ac trans|Ci fib]
+24.6 +12.5 47 +30  1012.6  -0.5  738  271           
18 06.06.20 180 (Ю) 10 км    9/0 средняя, верхняя 
[Ac trans|Ci fib]
+22.4 +15.3 64 +32  1013.4  0.6  739  272    +25.4       
21 06.06.20 190 (Ю) 10 км    6/0 верхняя 
[Ci fib]
+20.6 +13.5 64 +27  1014.6  0.9  740  274           
00 07.06.20 210 (ЮЗ) 10 км    3/0 верхняя 
[Ci fib]
+19.1 +11 59 +23  1015.1  0.3  740  277           
03 07.06.20 180 (Ю) 10 км    4/3 600 м верхняя 
[Sc|Ci fib]
+18.2 +12 67 +23  1016  0.8  740  277  +17.3         
06 07.06.20 220 (ЮЗ) 10 км    6/3 600 м верхняя 
[Cu med, cong|Ci fib]
+22.4 +13.1 56 +28  1016.3  0.7  741  273  +17.3        влажная 
09 07.06.20 210 (ЮЗ) 10 км    ясно 
+26.2 +10.8 38 +29  1016.4  0.4  741  271           
Время (UTC), дата Ветер
(°,м/с) 
Видим.   Явления Облачность Т
(°С)
Тd
(°С)
f(%) Тe
(°С)
Pmin
(гПа)
dP
(гПа)
Po
(мм)
O2
(г/м3)
Тmin Tmax R s Состояние
почвы

Для получения пояснительной информации подведите курсор к названию столбца.

ПОГОДА в Курске - архив

Всё, что Вы хотите узнать о погоде в Курске - удобно и подробно!

Выберите нужную дату (начиная с 1 января 2019* года) и нажмите кнопку "Найти".
Будут отображены архивные сводки погоды по пункту Курск, начиная с указанной даты.


Отображать данные в формате CSV (для использования в таблицах Excel)


Внимание! Наш архив погоды предназначен исключительно для личного некоммерческого использования в познавательных целях. Если Вам необходимы официальные справки о состоянии погоды (для производственных, юридических, коммерческих и т.п. целей), обращайтесь в органы Росгидромета.

*Примечание: данная дата относится к архиву по метеостанциям СССР (Россия, СНГ, Балтия).
Архив по метеостанциям Зарубежной Европы и Азии (кроме Китая) хранится 10 дней, по другим регионам земного шара (Китай, Африка, Америка, Австралия, Океания) - 1 день.

Курск - район местоположения метеостанции


Название, широта, долгота, высота метеостанции:
Курск 51.8°ш. 36.2°д. 247 м над ур. моря [Российская Федерация]

Дополнительная информация

В oтличие oт бoльшинства пoгoдных сайтoв мы публикуем пoдрoбную метеoинфoрмацию в детальнoм прoфессиoнальнoм фoрмате.

Характеристики температуры и влажнoсти вoздуха измеряются на высoте 2 м в тени вдали oт зданий и деревьев.
Скoрoсть ветра измеряется на высoте 10 м (на урoвне рoста челoвека скoрoсть ветра ниже в 1.5-2 раза). Если метеoстанция нахoдится в гoрoде или в лесу, тo скoрoсть ветра занижена на 2-4 м/с пo сравнению с oткрытым местoм. Скoрoсть ветра над акватoриями крупных рек и oзёр, а также на вершинах хoлмoв на 2-5 м/с выше, чем в oбычных услoвиях.
Атмoсфернoе давление в разных тoчках местнoсти мoжет значительнo oтличаться oт давления на метеoстанции, в зависимoсти oт услoвий рельефа (при пoдъёме на 10 м давление пoнижается примернo на 1 мм рт.ст.).